Orbital Elements at Epoch 2459200.5 (2020-Dec-17.0) TDB
Reference: JPL 23 (heliocentric ecliptic J2000)
Element | Value | Uncertainty (1-sigma) | Units |
e | .07621357201136511 | 4.7282e-08 | |
a | 2.604171558107374 | 1.3662e-08 | au |
q | 2.405698341533609 | 1.2253e-07 | au |
i | 5.006846457227928 | 5.1723e-06 | deg |
node | 4.286674501685559 | 3.9267e-05 | deg |
peri | 171.9043837859232 | 4.6486e-05 | deg |
M | 59.13094412664561 | 2.309e-05 | deg |
tp | 2458948.375455578050 (2020-Apr-08.87545558) | 9.8757e-05 | TDB |
period | 1534.980327686014 4.20 | 1.208e-05 3.307e-08 | d yr |
n | .2345306930041904 | 1.8456e-09 | deg/d |
Q | 2.802644774681139 | 1.4704e-08 | au |
|
| | Orbit Determination Parameters
Additional Information
|